Location: Beetenbrück
(52.8113°N, 9.5946°E)
Time: 22:17:45
(UTC+00:00)

Cosmos 2333 Rocket - Pass Details

Date: 14 April 2026
Orbit: 842 x 860 km, 70.8° (Epoch: 12 May)

Event Time Altitude Azimuth Distance (km) Brightness Sun altitude
Rises 19:05:54 0° 235° (SW) 3,396 5.8 -7.4°
Reaches altitude 10° 19:08:29 10° 243° (WSW) 2,463 5.2 -7.7°
Maximum altitude 19:13:50 42° 313° (NW) 1,193 3.7 -8.4°
Drops below altitude 10° 19:19:12 10° 24° (NNE) 2,472 4.7 -9.1°
Sets 19:21:48 0° 32° (NNE) 3,411 5.3 -9.5°
